ASTRA 1KR

Last updated on Nov. 18, 2019, 4:21 a.m. UTC

1 29055U 06012A   19321.14373887  .00000128  00000-0  00000+0 0  9997
2 29055   0.0417 269.9096 0005755 332.4453 244.5479  1.00273807 49648
UTC
Height (km)
Latitude
Longitude
Inclination
Orbital Period
UTC large
Height (km)
Speed (km/s)
/
Latitude / Longitude
Inclination (degrees)
Orbital Period (minutes)
Azimuth
Elevation
Range (km)
Doppler Factor
iOS Compass Heading
iOS Angle

Next 30 passes for location: Hong Kong

Rise time Rise Azimuth (degrees) Set time Set Azimuth (degrees) Duration Max altitude (degrees)

No matching passes for this satellites